Pittsfield, IL

10:01 AM CDT on April 25, 2017 (GMT -0500)
Pittsfield Penstone Municipal

Weather History for KPPQ - May, 2014

Change the Weather History Date:

Wednesday, May 7, 2014

  Actual Average (KUIN) Record (KUIN)
Temperature  
Mean Temperature 74 °F -  
Max Temperature 84 °F 71 °F 90 °F (1940)
Min Temperature 65 °F 50 °F 32 °F (1906)
Cooling Degree Days 10    
Growing Degree Days 24 (Base 50)    
Moisture  
Dew Point 59 °F    
Average Humidity 56    
Maximum Humidity 73    
Minimum Humidity 40    
Precipitation  
Precipitation 0.00 in - - ()
Sea Level Pressure  
Sea Level Pressure 29.76 in    
Wind  
Wind Speed 10 mph (SSE)    
Max Wind Speed 17 mph    
Max Gust Speed 26 mph    
Visibility 10 miles    
Events      
Averages and records for this station are not official NWS values.
T = Trace of Precipitation, MM = Missing Value Source: NWS Daily Summary

Daily Weather History Graph

Daily Weather History Graph

Search for Another Location

Airport or City:

Trip Planner

Search our weather history database for the weather conditions in past years. The results will help you decide how hot, cold, wet, or windy it might be!

Date:

Astronomy

May. 07, 2014 Rise Set
Actual Time 5:56 AM CDT 8:03 PM CDT
Civil Twilight 5:27 AM CDT 8:32 PM CDT
Nautical Twilight 4:50 AM CDT 9:09 PM CDT
Astronomical Twilight 4:11 AM CDT 9:49 PM CDT
Moon 1:09 PM CDT (5/7) 1:54 AM CDT (5/7)
Length of Visible Light 15h 05m
Length of Day
14h 06m
First Quarter, 55% of the Moon is Illuminated
May 7
First Quarter
May 14
Full
May 21
Last Quarter
May 28
New
Jun 5
First Quarter

Hourly Weather History & Observations

Time (CDT) Temp. Heat Index Dew Point Humidity Pressure Visibility Wind Dir Wind Speed Gust Speed Precip Events Conditions
12:15 AM 74.8 °F - 56.3 °F 52% 29.71 in 10.0 mi South 8.1 mph - N/A   Clear
12:35 AM 73.8 °F - 56.5 °F 55% 29.71 in 10.0 mi South 8.1 mph - N/A   Clear
12:55 AM 73.4 °F - 56.7 °F 56% 29.71 in 10.0 mi South 8.1 mph - N/A   Clear
1:15 AM 72.7 °F - 56.8 °F 57% 29.72 in 10.0 mi South 6.9 mph - N/A   Clear
1:35 AM 71.8 °F - 57.2 °F 60% 29.71 in 10.0 mi South 8.1 mph - N/A   Clear
1:55 AM 71.6 °F - 57.4 °F 61% 29.71 in 10.0 mi South 6.9 mph - N/A   Clear
2:15 AM 71.6 °F - 57.4 °F 61% 29.72 in 10.0 mi South 4.6 mph - N/A   Clear
2:35 AM 70.5 °F - 57.6 °F 63% 29.72 in 10.0 mi South 5.8 mph - N/A   Clear
2:55 AM 69.6 °F - 57.4 °F 65% 29.72 in 10.0 mi South 4.6 mph - N/A   Clear
3:15 AM 69.8 °F - 57.4 °F 65% 29.72 in 10.0 mi SSE 6.9 mph - N/A   Clear
3:35 AM 69.4 °F - 57.2 °F 65% 29.72 in 10.0 mi SE 4.6 mph - N/A   Clear
3:55 AM 68.9 °F - 57.2 °F 66% 29.72 in 10.0 mi SE 4.6 mph - N/A   Clear
4:15 AM 68.0 °F - 56.8 °F 67% 29.73 in 10.0 mi NNW 5.8 mph - N/A   Clear
4:35 AM 66.9 °F - 56.7 °F 70% 29.73 in 10.0 mi SSE 5.8 mph - N/A   Clear
4:55 AM 66.7 °F - 56.5 °F 70% 29.74 in 10.0 mi SSE 6.9 mph - N/A   Clear
5:15 AM 66.4 °F - 56.3 °F 70% 29.75 in 10.0 mi SSE 4.6 mph - N/A   Clear
5:35 AM 65.5 °F - 56.3 °F 72% 29.75 in 10.0 mi SSE 6.9 mph - N/A   Clear
5:55 AM 65.1 °F - 56.3 °F 73% 29.76 in 10.0 mi SSE 8.1 mph - N/A   Clear
6:15 AM 65.3 °F - 56.3 °F 73% 29.77 in 10.0 mi SSE 8.1 mph - N/A   Clear
6:35 AM 65.7 °F - 56.5 °F 72% 29.77 in 10.0 mi SSE 6.9 mph - N/A   Clear
6:55 AM 66.2 °F - 56.7 °F 71% 29.77 in 10.0 mi South 6.9 mph - N/A   Clear
7:15 AM 66.4 °F - 57.2 °F 72% 29.78 in 10.0 mi SSE 6.9 mph - N/A   Clear
7:35 AM 67.1 °F - 57.6 °F 71% 29.77 in 10.0 mi SE 4.6 mph - N/A   Clear
7:55 AM 68.2 °F - 57.7 °F 69% 29.78 in 10.0 mi SSE 8.1 mph - N/A   Clear
8:15 AM 68.9 °F - 58.1 °F 68% 29.78 in 10.0 mi SE 8.1 mph - N/A   Clear
8:35 AM 71.1 °F - 59.0 °F 66% 29.78 in 10.0 mi SSE 9.2 mph - N/A   Clear
8:55 AM 73.4 °F - 59.5 °F 62% 29.78 in 10.0 mi South 12.7 mph 16.1 mph N/A   Clear
9:15 AM 74.8 °F - 59.0 °F 58% 29.78 in 10.0 mi South 12.7 mph 18.4 mph N/A   Clear
9:35 AM 75.7 °F - 59.5 °F 57% 29.78 in 10.0 mi South 12.7 mph - N/A   Clear
9:55 AM 75.2 °F - 59.2 °F 57% 29.78 in 10.0 mi South 16.1 mph - N/A   Clear
10:15 AM 75.9 °F - 59.7 °F 57% 29.79 in 10.0 mi South 17.3 mph 24.2 mph N/A   Clear
10:35 AM 75.7 °F - 60.1 °F 58% 29.79 in 10.0 mi South 12.7 mph 23.0 mph N/A   Clear
10:55 AM 75.7 °F - 59.9 °F 58% 29.80 in 10.0 mi South 15.0 mph 20.7 mph N/A   Clear
11:15 AM 75.4 °F - 59.9 °F 58% 29.80 in 10.0 mi SSE 13.8 mph 19.6 mph N/A   Clear
11:35 AM 75.4 °F - 60.3 °F 59% 29.78 in 10.0 mi SSE 10.4 mph - N/A   Clear
11:55 AM 77.5 °F - 60.3 °F 55% 29.78 in 10.0 mi South 13.8 mph 21.9 mph N/A   Clear
12:15 PM 77.9 °F - 60.1 °F 54% 29.78 in 10.0 mi SSE 15.0 mph 26.5 mph N/A   Clear
12:35 PM 79.5 °F - 59.5 °F 50% 29.77 in 10.0 mi SSE 15.0 mph 23.0 mph N/A   Clear
12:55 PM 79.9 °F - 59.2 °F 49% 29.76 in 10.0 mi SE 12.7 mph 17.3 mph N/A   Clear
1:15 PM 81.5 °F 81.5 °F 57.9 °F 44% 29.76 in 10.0 mi South 12.7 mph 16.1 mph N/A   Clear
1:35 PM 82.2 °F 82.0 °F 57.9 °F 43% 29.78 in 10.0 mi South 10.4 mph - N/A   Clear
1:55 PM 83.7 °F 83.1 °F 57.7 °F 41% 29.77 in 10.0 mi SSE 16.1 mph 20.7 mph N/A   Clear
2:15 PM 84.0 °F 83.3 °F 57.2 °F 40% 29.76 in 10.0 mi SE 16.1 mph 21.9 mph N/A   Clear
2:35 PM 84.4 °F 83.7 °F 57.7 °F 40% 29.76 in 10.0 mi SSE 13.8 mph - N/A   Clear
2:55 PM 84.0 °F 83.3 °F 57.2 °F 40% 29.76 in 10.0 mi SSE 13.8 mph 17.3 mph N/A   Clear
3:15 PM 84.6 °F 83.9 °F 58.1 °F 40% 29.75 in 10.0 mi SSE 15.0 mph 20.7 mph N/A   Clear
3:35 PM 84.2 °F 83.8 °F 59.0 °F 42% 29.75 in 10.0 mi SSE 15.0 mph 19.6 mph N/A   Clear
3:55 PM 83.5 °F 82.8 °F 56.8 °F 40% 29.75 in 10.0 mi South 17.3 mph 24.2 mph N/A   Clear
4:15 PM 83.5 °F 83.1 °F 58.1 °F 42% 29.75 in 10.0 mi SSE 17.3 mph 21.9 mph N/A   Clear
4:35 PM 83.1 °F 83.0 °F 59.4 °F 44% 29.75 in 10.0 mi SSE 16.1 mph 21.9 mph N/A   Clear
4:55 PM 83.3 °F 83.2 °F 59.4 °F 44% 29.75 in 10.0 mi SSE 16.1 mph 19.6 mph N/A   Clear
5:15 PM 83.3 °F 83.4 °F 59.7 °F 45% 29.75 in 10.0 mi South 12.7 mph 23.0 mph N/A   Clear
5:35 PM 83.3 °F 83.5 °F 60.4 °F 46% 29.75 in 10.0 mi SSE 13.8 mph 18.4 mph N/A   Clear
5:55 PM 83.3 °F 83.7 °F 61.3 °F 47% 29.75 in 10.0 mi South 9.2 mph 21.9 mph N/A   Clear
6:15 PM 83.8 °F 84.3 °F 61.7 °F 47% 29.75 in 10.0 mi South 16.1 mph - N/A   Clear
6:35 PM 83.7 °F 84.1 °F 61.5 °F 47% 29.75 in 10.0 mi South 13.8 mph - N/A   Clear
6:55 PM 83.3 °F 83.7 °F 61.2 °F 47% 29.75 in 10.0 mi South 13.8 mph 17.3 mph N/A   Clear
7:15 PM 82.4 °F 82.7 °F 60.4 °F 47% 29.75 in 10.0 mi SSE 11.5 mph - N/A   Clear
7:35 PM 81.5 °F 82.0 °F 60.3 °F 48% 29.75 in 10.0 mi South 12.7 mph 17.3 mph N/A   Clear
7:55 PM 80.8 °F 81.4 °F 60.3 °F 49% 29.75 in 10.0 mi SSE 11.5 mph 16.1 mph N/A   Clear
8:15 PM 80.1 °F 80.9 °F 59.9 °F 50% 29.76 in 10.0 mi SSE 10.4 mph 16.1 mph N/A   Clear
8:35 PM 79.0 °F - 59.9 °F 52% 29.76 in 10.0 mi SSE 11.5 mph - N/A   Clear
8:55 PM 78.4 °F - 59.9 °F 53% 29.77 in 10.0 mi South 11.5 mph 16.1 mph N/A   Clear
9:15 PM 78.4 °F - 60.1 °F 53% 29.78 in 10.0 mi South 10.4 mph 17.3 mph N/A   Clear
9:35 PM 78.3 °F - 60.8 °F 55% 29.78 in 10.0 mi South 12.7 mph 18.4 mph N/A   Clear
9:55 PM 77.2 °F - 60.8 °F 57% 29.78 in 10.0 mi South 9.2 mph 17.3 mph N/A   Clear
10:15 PM 77.0 °F - 61.0 °F 58% 29.78 in 10.0 mi South 13.8 mph 18.4 mph N/A   Clear
10:35 PM 76.8 °F - 61.5 °F 59% 29.79 in 10.0 mi South 12.7 mph 19.6 mph N/A   Clear
10:55 PM 76.5 °F - 61.7 °F 60% 29.79 in 10.0 mi South 12.7 mph 21.9 mph N/A   Clear
11:15 PM 76.1 °F - 61.7 °F 61% 29.79 in 10.0 mi South 11.5 mph 17.3 mph N/A   Clear
11:35 PM 75.2 °F - 61.7 °F 63% 29.80 in 10.0 mi South 11.5 mph 18.4 mph N/A   Clear
11:55 PM 74.8 °F - 61.7 °F 64% 29.80 in 10.0 mi South 12.7 mph 18.4 mph N/A   Clear